{"data":{"norad_id":55800,"intl_designator":"2023-029E","name":"ONEWEB-0563","alt_names":[],"object_type":"PAYLOAD","status":"ACTIVE","operator":null,"country":"UK","launch_date":"2023-03-09","launch_site_code":"AFETR","launch_vehicle":null,"mission":null,"orbit_class":"UNKNOWN","rcs_meters":null,"size_class":null,"mass_kg":null,"dimensions":null,"purposes":["comms"],"wikipedia_slug":null,"has_3d_model":false,"image_url":null,"decayed_at":null,"tle_current":{"epoch":"2026-09-19T16:28:40.435104Z","epoch_age_seconds":96110,"freshness":"FRESH","line1":"1 55800U 23029E   26262.68657911  .00000037  00000+0  58618-4 0  9996","line2":"2 55800  87.9129 255.6198 0002006  81.4806 278.6555 13.20769533173612","mean_motion":13.20769533,"eccentricity":0.0002006,"inclination_deg":87.9129,"raan_deg":255.6198,"arg_perigee_deg":81.4806,"mean_anomaly_deg":278.6555,"bstar":5.8618e-5,"rev_number":17361,"period_min":109.02734837691,"perigee_km":1180.2655529889,"apogee_km":1183.2985925209,"semimajor_km":7559.9190727549,"source":"CELESTRAK","updated_at":"2026-09-20T09:00:44.759587Z"}}}